User: anonymous   Login
Location: Banksville Park
(38.5557°N, 75.1182°W)
Time: 00:56:24
(UTC+00:00)
Language:

Cosmos 990 Rocket - Orbit

View from above orbital plane
View from above orbital plane
View from above satellite
View from above satellite

Ground track
Ground track

The orbit data is extracted from the following two-line orbital elements,

1 10677U 78019B   20336.72371594  .00000039  00000-0  20654-4 0  9991
2 10677  74.0369 126.7063 0016344 251.7119 108.2258 14.40162215244384
Epoch (UTC): 01 December 2020 17:22:09
Eccentricity: 0.0016344
inclination: 74.0369°
perigee height: 746 km
apogee height: 769 km
right ascension of ascending node: 126.7063°
argument of perigee: 251.7119°
revolutions per day: 14.40162215
mean anomaly at epoch: 108.2258°
orbit number at epoch: 24438

The dashed part of the orbit path shows where the satellite is in the earth's shadow,  

DLR